Location: Long Sault Conservation Area
(44.0496°N, 78.7419°W)
Time: 04:26:14
(UTC-04:00)

Daily predictions for brighter satellites

Satellite Brightness Start Highest point End
(mag) Time Altitude Azimuth Time Altitude Azimuth Time Altitude Azimuth
CZ-4B R/B 3.8 00:04:51 16° NE 00:04:51 16° NE 00:06:06 10° NNE
Terra 3.2 00:04:36 25° WSW 00:05:45 28° W 00:09:52 10° NW
Cosmos 1315 Rocket 4.3 00:10:58 28° NE 00:10:58 28° NE 00:13:21 10° NNE
Cosmos 1602 4.2 00:11:05 57° NNE 00:11:05 57° NNE 00:14:15 10° N
Meteor 1-13 Rocket 4.3 00:04:36 10° NNW 00:10:33 76° W 00:11:53 55° SSW
NOSS 3-1 (A) 4.3 00:04:58 10° NNW 00:12:24 64° NE 00:16:17 33° ESE
Cosmos 1633 3.8 00:14:17 36° NE 00:14:17 36° NE 00:16:44 10° NNE
Cosmos 1943 Rocket 4.2 00:14:56 14° E 00:14:56 14° E 00:17:00 10° ENE
Lacrosse 5 rocket 3.8 00:17:41 11° ENE 00:17:41 11° ENE 00:17:52 10° ENE
Cosmos 1812 4.4 00:12:30 10° NNW 00:15:44 26° W 00:15:44 26° W
H-2A R/B 3.8 00:15:17 19° WSW 00:17:11 23° W 00:21:23 10° NW
ASTEX 1 4.3 00:12:38 10° N 00:17:18 43° WNW 00:18:38 35° WSW
Meteor 2-4 Rocket 3.6 00:14:49 10° N 00:20:15 72° ENE 00:20:52 65° SE
Lacrosse 5 2.9 00:22:41 33° E 00:22:41 33° E 00:25:49 10° ENE
Cosmos 2082 Rocket 3.6 00:17:22 10° NW 00:22:01 26° WSW 00:23:06 25° WSW
Cosmos 1354 Rocket 4.0 00:17:26 10° NNW 00:22:42 69° ENE 00:23:13 64° ESE
Cosmos 1821 Rocket 3.9 00:21:38 55° SSW 00:23:10 87° W 00:29:27 10° N
Cosmos 1605 Rocket 4.2 00:22:39 52° SE 00:23:43 58° E 00:29:59 10° NNE
Meteor 1-11 Rocket 3.8 00:22:41 57° SSW 00:23:57 80° W 00:29:47 10° N
Cosmos 2285 Rocket 4.1 00:24:14 54° SE 00:24:59 58° ESE 00:31:14 10° NNE
Cosmos 1486 Rocket 4.1 00:20:21 10° NNW 00:25:37 61° WSW 00:26:01 59° SW
Cosmos 1892 Rocket 3.8 00:22:10 10° N 00:26:05 63° NE 00:26:05 63° NE
SL-8 R/B 4.5 00:22:43 10° WNW 00:27:26 51° N 00:30:39 19° ENE
H-2A R/B 3.4 00:25:21 10° NNE 00:29:00 42° ENE 00:29:00 42° ENE
Gbstr 26 Del rocket 3.4 00:27:34 10° WNW 00:31:25 58° WNW 00:31:25 58° WNW
ATLAS 2AS CENTAUR R/B 4.0 00:25:53 10° NNW 00:33:33 42° NE 00:39:40 15° ESE
Cosmos 1346 Rocket 4.3 00:34:21 10° N 00:37:07 28° NE 00:37:07 28° NE
Cosmos 2123 Rocket 3.9 00:31:41 10° N 00:38:00 87° W 00:39:07 63° S
Cosmos 1934 Rocket 3.9 00:38:39 59° SSW 00:39:50 77° W 00:45:56 10° N
Cosmos 1536 3.6 00:43:44 49° NW 00:43:44 49° NW 00:47:00 10° N
NOSS 3-1 (C) 4.0 00:36:15 10° NW 00:43:49 78° WSW 00:46:09 51° SSE
Cosmos 1400 Rocket 3.7 00:45:55 47° NW 00:45:55 47° NW 00:49:32 10° N
ALOS 2 2.8 00:49:23 67° NW 00:49:23 67° NW 00:53:15 10° NNW
USA 234 4.0 00:42:48 10° NE 00:49:05 52° NNW 00:55:22 10° WSW
Meteor 2-16 Rocket 4.5 00:50:50 57° SW 00:52:02 71° W 00:58:10 10° N
Cosmos 1626 Rocket 4.3 00:48:45 10° N 00:52:40 45° ENE 00:52:40 45° ENE
Cosmos 1992 Rocket 4.4 00:54:40 51° E 00:54:40 51° E 00:59:18 10° NNE
Cosmos 2084 Rocket 4.2 00:52:26 10° NNW 00:55:33 45° N 00:55:33 45° N
Cosmos 1455 Rocket 3.4 00:57:31 62° NNE 00:57:31 62° NNE 01:01:11 10° N
Cosmos 1975 4.3 00:59:41 31° NE 00:59:41 31° NE 01:02:19 10° NNE
Cosmos 1025 Rocket 4.3 00:55:14 10° NNW 00:58:47 33° WNW 00:58:47 33° WNW
Meteor 1-23 Rocket 4.4 00:54:24 10° NNW 00:59:51 56° W 01:00:15 55° WSW
MOS 1-B Rocket 3.9 01:01:46 64° SSE 01:02:47 86° ENE 01:09:34 10° NNW
Cosmos 2369 Rocket 2.2 01:12:49 67° WSW 01:13:28 75° WNW 01:19:08 10° NNE
Cosmos 2219 4.4 01:14:52 10° N 01:20:04 36° NE 01:22:16 27° E
CZ-2C R/B 2.4 01:24:03 10° NNE 01:29:18 80° ESE 01:29:23 80° ESE
CZ-2C R/B 3.0 01:29:52 67° E 01:30:02 68° ENE 01:34:56 10° N
GP-B 3.4 01:29:44 10° N 01:33:36 65° NNW 01:33:36 65° NNW
CZ-4B R/B 4.2 01:38:36 13° NW 01:38:36 13° NW 01:39:05 10° NW
ISS -0.7 01:37:54 14° NW 01:39:40 21° N 01:42:15 10° NE
UNK 4.1 01:26:41 10° WSW 01:41:47 90° SSE 01:45:43 10° ENE
Cosmos 2100 Rocket 4.0 01:44:59 62° SSW 01:46:04 78° W 01:52:29 10° N
SeaSat 1 3.1 01:47:23 42° E 01:48:30 51° ENE 01:53:17 10° NNW
Meteor 1-12 Rocket 4.3 01:48:04 58° WSW 01:48:39 62° WNW 01:54:15 10° N
Cosmos 1656 Rocket 4.1 01:52:01 47° ESE 01:52:12 47° ESE 01:57:36 10° NE
Lacrosse 5 rocket 2.8 01:53:23 28° NW 01:53:38 28° NNW 01:56:52 10° NNE
Helios 1A Rocket 4.0 01:49:51 10° N 01:53:19 40° NW 01:53:19 40° NW
Cosmos 2061 Rocket 4.0 01:54:19 59° SW 01:55:30 73° W 02:01:57 10° N
Cosmos 1943 Rocket 2.0 01:56:26 72° WSW 01:56:57 79° WNW 02:02:35 10° NNE
Cosmos 1500 4.2 01:58:09 44° N 01:58:09 44° N 02:00:55 10° N
Cosmos 1953 Rocket 4.0 01:53:46 10° N 01:57:43 54° ENE 01:57:43 54° ENE
Cosmos 968 Rocket 3.4 01:58:08 10° NNW 02:03:20 76° W 02:03:20 76° W
Lacrosse 5 3.0 02:01:49 27° W 02:04:00 40° NNW 02:08:49 10° NE
NOSS 3-3 (A) 4.3 02:04:20 47° SE 02:05:00 49° ESE 02:11:23 10° NE
NOSS 3-3 (C) 4.3 02:04:25 46° SE 02:05:06 48° ESE 02:11:28 10° NE
Cosmos 1241 Rocket 4.4 02:00:49 10° NW 02:07:18 77° WSW 02:08:34 59° S
Cosmos 2016 Rocket 3.8 02:06:32 63° SSW 02:07:32 79° W 02:13:40 10° N
Cosmos 1459 Rocket 4.2 02:07:10 49° WSW 02:08:13 56° WNW 02:14:13 10° N
Cosmos 1726 Rocket 3.9 02:09:50 57° ENE 02:09:50 57° ENE 02:13:41 10° NNE
Cosmos 1825 Rocket 3.8 02:05:20 10° N 02:09:18 68° NNW 02:09:18 68° NNW
Cosmos 1802 Rocket 4.1 02:08:59 54° SW 02:10:05 64° W 02:16:21 10° N
Cosmos 1818 3.8 02:09:31 54° W 02:10:26 63° NW 02:15:54 10° NNE
Cosmos 2098 Rocket 4.3 02:09:42 52° SSE 02:11:28 74° E 02:18:58 10° N
Cosmos 1758 Rocket 3.6 02:17:45 10° N 02:22:05 81° NNE 02:22:05 81° NNE
ATLAS 2AS CENTAUR R/B 3.0 02:17:03 10° NW 02:25:00 61° WSW 02:27:02 47° S
Cosmos 1864 Rocket 4.4 02:26:09 57° SSW 02:27:32 84° W 02:33:48 10° N
Cosmos 44 Rocket 3.5 02:23:45 10° NW 02:28:22 60° W 02:28:22 60° W
Meteor 1-21 4.1 02:29:25 10° NNW 02:34:59 67° W 02:35:42 61° SW
Cosmos 2208 Rocket 4.0 02:35:00 59° SE 02:35:37 64° ESE 02:40:50 10° NNE
ATLAS CENTAUR R/B 4.0 02:38:00 14° ESE 02:38:51 14° ESE 02:41:26 10° ENE
Cosmos 1777 Rocket 4.0 02:34:20 10° NNW 02:39:28 61° WSW 02:39:35 61° WSW
Cosmos 1725 Rocket 4.1 02:40:59 50° SW 02:42:24 64° W 02:48:33 10° N
Cosmos 1816 Rocket 4.4 02:39:12 10° NNW 02:45:28 74° W 02:47:09 50° SSW
BREEZE-M DEB (TANK) 2.5 02:38:42 10° WNW 02:45:58 75° NNE 02:46:35 57° E
Tsikada Rocket 4.2 02:43:27 10° NNW 02:49:34 55° W 02:50:57 46° SW
Meteor 1-15 Rocket 4.2 02:50:43 52° S 02:52:15 86° E 02:58:10 10° NNE
Cosmos 1743 4.2 02:53:51 26° WNW 02:53:51 26° WNW 02:56:42 10° NNW
CZ-2D R/B 4.3 02:53:09 10° NE 02:56:54 19° E 03:00:37 10° SE
Cosmos 2082 4.3 02:52:37 10° NNW 02:58:10 55° ENE 03:03:04 13° SE
Meteor 2-5 Rocket 4.5 02:54:57 10° N 03:00:40 52° ENE 03:04:43 20° SE
SL-16 R/B 3.9 02:55:41 10° SE 03:01:11 35° ENE 03:06:41 10° N
Cosmos 2228 2.9 03:02:32 67° W 03:02:43 68° W 03:07:02 10° N
Meteor 2-9 Rocket 4.3 03:01:24 49° SW 03:02:59 72° WNW 03:08:49 10° N
USA 161 3.9 03:03:09 18° E 03:03:47 19° ENE 03:05:56 10° NNE
Cosmos 2219 3.8 02:59:06 10° NW 03:04:08 36° WSW 03:04:08 36° WSW
Cosmos 1842 4.2 03:00:38 10° NNW 03:03:44 38° WNW 03:03:44 38° WNW
SL-08 R/B 3.2 03:03:26 51° SSE 03:04:37 84° ENE 03:09:18 10° NNW
Cosmos 1340 3.7 03:02:03 10° NNW 03:04:48 35° WNW 03:04:48 35° WNW
Cosmos 2227 Rocket 2.4 03:04:27 10° NNW 03:10:10 72° ENE 03:14:29 18° SE
PSLV R/B 4.2 03:06:05 10° N 03:10:18 45° WNW 03:10:51 43° W
Cosmos 44 3.3 03:08:02 10° NW 03:13:08 57° WSW 03:13:39 54° SW
IRS-P3 4.1 03:09:50 10° N 03:15:12 77° WNW 03:16:49 46° SSW
ISS -1.4 03:13:50 10° NW 03:16:47 31° NNE 03:19:44 10° E
NOSS 2-1 (D) 4.1 03:20:56 37° SE 03:21:30 39° ESE 03:25:35 10° NE
NOSS 2-1 (C) 4.1 03:22:15 36° SE 03:22:52 39° ESE 03:26:57 10° NE
Cosmos 2150 Rocket 4.1 03:18:31 10° NNW 03:23:47 72° ENE 03:27:35 18° SSE
Cosmos 1666 4.1 03:25:30 26° WNW 03:25:30 26° WNW 03:28:35 10° NNW
SeaSat 1 3.8 03:27:10 22° W 03:27:10 22° W 03:30:10 10° NW
Cosmos 2058 Rocket 4.3 03:26:23 27° W 03:26:50 27° WNW 03:30:39 10° NNW
Cosmos 2278 3.7 03:25:11 40° SSW 03:27:20 80° ESE 03:33:02 10° NNE
Cosmos 2369 3.8 03:25:57 37° S 03:28:11 72° ESE 03:33:50 10° NNE
GEOS 3 Rocket 4.1 03:23:27 10° SE 03:28:35 62° NE 03:33:41 10° NNW
Cosmos 1812 Rocket 3.5 03:27:58 51° SSW 03:29:03 81° W 03:33:34 10° N
Cosmos 2297 Rocket 2.3 03:26:12 10° NNW 03:31:53 77° ENE 03:37:31 10° SSE
Lacrosse 5 rocket 4.1 03:32:28 10° NNW 03:33:54 12° N 03:35:20 10° NNE
Cosmos 405 Rocket 2.7 03:33:20 10° NNW 03:37:26 84° W 03:38:36 45° S
Cosmos 1898 Rocket 3.4 03:32:21 10° NNW 03:37:43 85° WSW 03:41:29 20° SSE
NOSS 2-1 (E) 3.8 03:36:52 40° SSE 03:37:52 52° ESE 03:42:17 10° NE
NPP 3.9 03:36:08 10° N 03:41:23 54° WNW 03:43:33 33° SW
Cosmos 1943 Rocket 4.4 03:38:26 10° W 03:41:40 15° NW 03:44:57 10° N
Resurs 1-4 Rocket 2.9 03:38:38 10° NNE 03:43:42 46° E 03:47:24 18° SSE
CBERS 1 LM4 rocket 4.3 03:39:35 10° N 03:44:21 77° WNW 03:46:20 36° SSW
Cosmos 1464 Rocket 4.0 03:42:23 31° SSW 03:45:35 72° W 03:51:56 10° N
BREEZE-M DEB (TANK) 4.1 03:44:28 24° S 03:46:15 30° SE 03:49:50 10° ENE
Cosmos 972 Rocket 4.4 03:42:44 10° NNW 03:47:19 40° W 03:48:35 34° SW
NOSS 3-4 (A) 3.9 03:40:56 10° NW 03:47:54 81° NE 03:55:18 10° SE
NOSS 3-4 (C) 3.9 03:41:01 10° NW 03:48:02 80° NE 03:55:27 10° SE
Lacrosse 5 4.3 03:44:27 10° NW 03:48:10 20° N 03:51:53 10° NE
Geosat 4.2 03:46:09 10° NNE 03:51:07 60° WNW 03:53:26 31° SW
Meteor 1-24 Rocket 3.9 03:45:28 10° N 03:51:10 77° E 03:57:00 10° SSE
UNKNOWN OBJECT B 4.3 03:48:21 10° NNE 03:51:53 31° E 03:54:35 14° SSE
ADEOS 3.5 03:46:55 10° N 03:52:09 74° WNW 03:54:45 30° SSW
IRAS Rocket 4.5 03:46:46 10° N 03:52:17 59° WNW 03:55:05 29° SW
Cosmos 1937 Rocket 3.4 03:47:07 10° NNW 03:52:19 88° WSW 03:57:29 10° SSE
Cosmos 1378 3.9 03:53:23 10° N 03:57:07 52° E 04:00:20 13° SSE
Okean 3 Rocket 3.5 03:53:48 10° NNW 03:58:12 67° W 04:00:20 29° S
Cosmos 1763 Rocket 4.1 03:56:08 19° S 03:59:39 52° ESE 04:04:41 10° NNE
Cosmos 1092 Rocket 4.4 03:54:13 10° N 04:00:27 64° E 04:06:43 10° SSE
Cosmos 1953 4.1 03:57:51 10° SSE 04:01:21 29° E 04:04:54 10° NNE
ARIANE 5 R/B 2.5 03:56:41 10° NNE 04:01:51 87° ESE 04:05:07 23° SSW
SL-24 R/B 4.3 04:00:37 19° S 04:04:13 71° WSW 04:08:47 10° NNW
EO 1 Del DPAF 3.4 04:02:20 14° SSE 04:05:32 76° ENE 04:09:26 10° N
ERS-2 2.9 04:03:58 10° N 04:07:28 39° WNW 04:08:37 30° WSW
BREEZE-M DEB (TANK) 2.8 04:04:08 21° WSW 04:07:37 83° NNW 04:10:15 10° ENE
Meteor 2-12 Rocket 4.4 04:05:20 19° S 04:09:54 89° E 04:16:00 10° N
Cosmos 1441 Rocket 3.4 04:11:04 10° N 04:15:03 75° ENE 04:19:03 10° SSE
Spot 4 Rocket 4.4 04:10:05 10° N 04:15:06 52° WNW 04:18:07 23° SW
Abrixas 3.5 04:12:43 10° WNW 04:15:42 48° NNE 04:18:41 10° E
ATLAS CENTAUR R/B 1.8 04:14:20 25° SW 04:17:19 86° WNW 04:22:22 10° NE
Cosmos 1707 3.6 04:14:12 10° NNW 04:17:44 32° W 04:18:54 27° SW
SME Rocket 4.3 04:14:20 15° S 04:18:56 60° W 04:27:10 10° NNW
GPS 2-04 Rocket1 4.0 04:19:02 22° S 04:19:34 22° S 04:22:36 10° ESE
IRS-1D 3.5 04:20:58 10° N 04:25:52 62° WNW 04:29:23 19° SSW
Cosmos 1656 3.8 04:23:00 20° SW 04:26:57 72° WNW 04:32:38 10° NNE
USA 161 3.3 04:34:18 17° W 04:34:18 17° W 04:36:02 10° NW
BREEZE-M DEB (TANK) 4.0 04:31:38 10° W 04:35:07 43° N 04:39:15 10° ENE
CZ-2D R/B 2.3 04:32:00 10° N 04:37:26 63° WNW 04:41:59 14° SSW
Okean O Rocket 2.2 04:35:10 10° NNE 04:39:30 57° E 04:43:51 10° S
Cosmos 1076 Rocket 3.8 04:36:44 10° NNW 04:40:55 48° W 04:44:52 11° SSW
Cosmos 1743 Rocket 3.7 04:36:36 10° N 04:40:57 74° E 04:45:17 10° SSE
In-Cosmos 22 4.0 04:38:42 10° NNW 04:44:01 81° W 04:49:17 10° S
Cosmos 1697 Rocket 2.8 04:39:37 16° SW 04:44:13 70° WNW 04:49:54 10° NNE
SL-16 R/B 3.0 04:38:56 10° SSW 04:44:42 41° W 04:50:31 10° NNW
BREEZE-M DEB (TANK) 2.4 04:46:35 10° WNW 04:49:17 67° N 04:54:01 10° E
Cosmos 1980 Rocket 2.2 04:46:17 11° SSW 04:51:43 85° ESE 04:57:25 10° NNE
USA 81 4.2 04:47:47 10° S 04:53:03 77° E 04:58:21 10° N
ISS -3.3 04:50:10 10° WNW 04:53:22 55° SW 04:56:33 10° SE
Cosmos 2227 Rocket 3.7 04:50:01 10° WNW 04:53:32 17° W 04:56:12 13° SW
IRS-1C Rocket 4.2 04:48:26 10° NNE 04:53:43 86° ESE 04:58:59 10° SSW
Cosmos 1655 Rocket 4.1 04:49:09 10° N 04:55:36 88° E 05:02:00 10° S
CZ-4B R/B 3.5 04:52:32 10° NNE 04:56:29 54° E 05:00:12 10° S
ADEOS II 4.1 04:52:05 10° NE 04:56:34 27° E 05:01:00 10° SSE
Cosmos 1544 3.3 04:54:01 10° S 04:57:40 70° E 05:01:19 10° NNE
Cosmos 1674 3.3 04:57:20 10° N 05:01:07 60° E 05:04:49 10° SSE
Cosmos 2322 Rocket 3.3 04:57:04 10° S 05:02:18 42° ESE 05:07:33 10° NE
PSLV R/B 3.7 04:59:55 10° N 05:03:49 75° WNW 05:07:35 10° SSW
Cosmos 1408 Rocket 4.5 05:00:04 10° NNW 05:03:53 29° W 05:07:42 10° SSW
Cosmos 1766 Rocket 4.4 05:01:40 10° NNW 05:05:32 31° W 05:09:25 10° SSW
NOSS 7 (H) 4.4 05:03:15 13° SW 05:06:03 64° NW 05:09:30 10° NNE
Cosmos-2242 3.4 05:03:04 10° SSW 05:07:14 47° WNW 05:11:25 10° N
Cosmos 1470 3.2 05:04:57 10° S 05:08:50 64° E 05:12:46 10° NNE
Lacrosse 5 rocket 4.0 05:12:34 10° NNW 05:14:31 14° NNE 05:16:27 10° NE
Cosmos 2297 Rocket 3.7 05:11:55 10° WNW 05:15:12 16° W 05:18:28 10° SW
Okean-O 3.5 05:16:33 10° NNE 05:20:55 53° E 05:25:15 10° S
Milstar 3 Cent rocket 4.1 05:17:16 10° SW 05:22:00 23° S 05:29:17 10° SE
Cosmos 372 Rocket 3.9 05:18:04 10° NNW 05:23:11 77° WSW 05:28:15 10° SSE
Resurs 1-4 Rocket 3.4 05:19:01 10° N 05:23:17 25° WNW 05:27:31 10° WSW
PSLV R/B 4.3 05:19:18 10° NNE 05:23:28 54° E 05:27:37 10° S
Cosmos 1125 Rocket 3.9 05:20:53 10° NNW 05:25:48 43° WSW 05:30:41 10° S
CZ-3 R/B 3.9 05:17:48 10° SW 05:37:34 30° S 05:44:09 10° SE
